This is the latest recevied weather packets stored in our database for station/object AI4QX-5. If no packets are shown the sender has not sent any weather packets the latest 10 day(s).
| Time | Temp. | Humidity | Pressure | Rain* | Wind** | Luminosity | Snow |
|---|---|---|---|---|---|---|---|
| 1778004000 | 30° C | 37% | 1015 hPa | 0 mm | - | - | - |
| 1778003400 | 29.44° C | 41% | 1015 hPa | 0 mm | - | - | - |
| 1778002800 | 30° C | 41% | 1015.2 hPa | 0 mm | - | - | - |
| 1778002200 | 30° C | 42% | 1015.2 hPa | 0 mm | - | - | - |
| 1778001600 | 29.44° C | 42% | 1015.1 hPa | 0 mm | - | - | - |
| 1778001000 | 29.44° C | 42% | 1015.2 hPa | 0 mm | - | - | - |
| 1778000400 | 29.44° C | 44% | 1015.1 hPa | 0 mm | - | - | - |
| 1777999800 | 29.44° C | 45% | 1015.2 hPa | 0 mm | - | - | - |
| 1777999200 | 28.89° C | 44% | 1015.1 hPa | 0 mm | - | - | - |
| 1777998600 | 28.89° C | 44% | 1015.2 hPa | 0 mm | - | - | - |
| 1777998000 | 28.89° C | 46% | 1015.3 hPa | 0 mm | - | - | - |
| 1777997400 | 28.33° C | 45% | 1015.3 hPa | 0 mm | - | - | - |
| 1777996800 | 28.33° C | 46% | 1015.2 hPa | 0 mm | - | - | - |
| 1777996200 | 28.33° C | 47% | 1015.2 hPa | 0 mm | - | - | - |
| 1777995600 | 27.78° C | 46% | 1015.3 hPa | 0 mm | - | - | - |
| 1777995000 | 27.78° C | 48% | 1015.2 hPa | 0 mm | - | - | - |
| 1777994400 | 27.78° C | 47% | 1015.2 hPa | 0 mm | - | - | - |
| 1777993800 | 27.22° C | 49% | 1015.1 hPa | 0 mm | - | - | - |
| 1777993200 | 27.22° C | 50% | 1015.1 hPa | 0 mm | - | - | - |
| 1777992600 | 26.67° C | 51% | 1014.9 hPa | 0 mm | - | - | - |
| 1777992000 | 26.67° C | 50% | 1014.9 hPa | 0 mm | - | - | - |
| 1777991400 | 26.67° C | 49% | 1014.8 hPa | 0 mm | - | - | - |
| 1777990800 | 26.67° C | 52% | 1014.8 hPa | 0 mm | - | - | - |
| 1777989600 | 26.11° C | 51% | 1014.9 hPa | 0 mm | - | - | - |
| 1777989000 | 25.56° C | 49% | 1014.8 hPa | 0 mm | - | - | - |
* Rain latest hour (hover to see other rain measurements)
** Current wind speed in m/s (hover to see current wind gust speed)